Location: La Estación
(39.9833°N, 3.9500°W)
Time: 16:36:52
(UTC+00:00)

Cosmos 1271 Rocket - Pass Details

Date: 14 June 2025
Orbit: 442 x 474 km, 81.2° (Epoch: 19 July)

Event Time Altitude Azimuth Distance (km) Brightness Sun altitude
Exits shadow 23:49:07 35° 10° (N) 785 4.0 -26.4°
Drops below altitude 10° 23:51:21 10° 10° (N) 1,657 6.2 -26.4°
Sets 23:53:27 0° 10° (N) 2,540 7.4 -26.5°
